Theta_e
306 306 307 307 307 307 307 307 307 307 307 308 309 309 308 307 307 307 310 318 330 333 333 332 333 334 333 332 330 326 324 326 331
306 306 307 307 307 308 308 308 308 307 307 307 307 307 307 308 309 309 307 307 309 318 330 333 332 332 333 334 333 333 331 326 327
306 307 307 307 307 307 308 308 308 308 308 308 309 308 308 308 307 307 308 309 307 307 313 321 327 328 326 331 333 334 333 333 329
306 306 306 306 307 307 307 307 307 308 308 308 308 308 309 309 310 310 308 308 309 312 313 312 316 316 320 327 329 331 333 333 333
305 305 306 306 306 306 306 307 307 307 307 307 307 307 308 308 308 309 310 310 310 313 312 311 310 310 312 318 323 328 329 330 332
304 304 304 305 305 305 305 305 305 305 306 306 306 307 307 308 308 309 309 310 311 312 313 312 311 311 311 312 312 315 321 321 325
304 305 305 306 306 307 307 307 307 307 307 307 307 306 307 307 308 309 310 311 312 313 313 312 313 312 313 312 312 313 312 312 314
306 306 307 307 307 307 307 307 307 307 307 307 308 308 307 307 308 310 311 311 312 313 313 314 315 315 317 320 321 323 317 313 312
307 307 307 307 307 307 307 307 307 307 307 307 307 307 307 307 308 310 312 313 314 317 323 322 321 322 321 320 317 316 317 314 317
306 306 306 306 306 306 306 306 306 306 306 307 307 307 306 306 307 312 314 315 315 316 318 320 319 320 322 323 323 323 323 322 321
306 306 306 306 306 306 306 306 306 306 306 306 306 306 306 306 310 315 316 316 316 316 316 316 316 317 320 322 322 322 321 320 322
306 305 305 305 305 305 305 305 305 305 306 306 306 306 306 307 313 316 317 317 317 317 316 316 316 315 316 318 319 320 320 320 321
305 304 304 304 304 304 304 305 305 305 305 306 306 307 309 309 316 317 316 315 316 316 315 315 315 315 315 315 316 317 317 316 320
304 304 304 304 304 304 304 304 304 304 305 305 306 310 314 314 317 316 313 312 314 313 313 312 311 310 313 315 314 314 315 315 319
304 303 303 303 303 303 303 303 303 304 304 305 306 312 315 316 316 313 312 312 313 313 313 311 309 306 308 312 314 313 313 314 314
303 303 303 302 302 302 303 303 303 303 303 304 306 312 314 314 313 312 312 312 312 311 310 306 303 304 309 311 312 312 312 311 311
304 303 302 302 302 302 302 302 302 302 303 303 304 305 309 313 310 310 311 311 307 304 304 303 304 306 309 310 310 311 310 309 306
303 303 302 302 301 301 301 300 300 301 302 302 303 304 304 303 304 304 306 303 303 303 303 304 307 309 308 307 308 307 308 305 301
303 303 302 301 301 300 300 299 299 299 300 300 301 302 302 303 303 303 302 301 302 302 303 303 305 305 305 305 304 303 302 302 301
303 302 301 301 300 299 299 298 298 298 298 298 299 299 300 302 302 301 299 299 300 301 302 302 304 304 303 302 302 303 303 303 302
Wind_Speed
12 12 11 11 10 10 10 9 9 7 7 8 9 10 11 12 13 14 15 16 14 12 12 13 11 9 12 12 10 10 11 11 10
11 11 11 11 11 11 11 11 10 10 9 9 8 8 8 9 10 12 13 14 15 15 14 15 15 14 13 13 13 12 12 12 13
12 12 11 11 10 10 11 10 10 9 10 10 10 9 9 8 8 7 8 9 10 10 15 18 18 18 16 13 13 13 13 13 14
13 12 11 11 10 10 10 10 10 9 9 9 9 9 9 8 8 8 6 4 4 7 12 16 17 18 18 16 14 12 13 14 15
12 12 11 11 12 12 11 10 10 10 10 10 9 9 8 8 8 7 6 5 4 6 11 12 13 14 17 18 18 17 14 15 16
11 12 13 14 14 14 14 13 13 12 12 11 10 10 9 9 7 7 7 6 6 7 10 11 12 12 14 15 16 19 21 20 20
12 13 13 13 13 13 13 13 13 13 12 12 11 10 9 9 8 8 7 5 5 7 9 9 10 10 11 12 13 14 17 20 23
12 12 11 12 12 12 13 13 13 13 13 12 12 11 10 8 8 7 6 6 7 7 9 10 11 10 9 9 9 12 14 16 18
11 11 12 12 13 13 13 14 14 14 14 13 12 11 10 8 7 6 5 5 5 5 5 5 8 9 9 8 10 12 12 12 14
11 12 13 14 14 14 14 14 15 14 13 13 13 11 10 8 5 4 4 4 5 5 4 4 5 4 6 6 6 8 9 10 10
13 14 14 15 15 16 16 16 16 16 15 14 13 11 9 6 3 3 4 4 6 7 8 8 6 6 3 3 6 8 9 8 8
13 14 15 15 16 16 15 15 16 16 15 15 14 11 8 4 3 3 3 5 6 7 8 9 9 8 8 7 8 6 6 7 8
13 14 14 15 15 16 16 15 15 14 14 13 11 9 6 3 4 2 3 6 8 9 10 11 11 11 10 9 9 10 10 10 11
13 14 15 15 15 16 15 16 16 16 14 11 9 6 5 5 4 1 4 8 11 11 12 14 13 13 12 11 11 12 12 12 12
12 13 14 15 15 14 14 15 16 16 14 10 5 4 4 4 3 1 6 10 14 15 17 17 16 14 12 11 11 12 13 14 14
12 13 14 14 15 15 15 14 14 14 14 12 4 1 2 3 2 5 9 12 17 19 18 17 14 12 11 11 11 13 14 15 16
10 11 12 13 13 14 14 14 15 16 15 14 7 3 2 4 10 12 12 13 15 18 15 12 10 9 10 11 12 14 16 16 16
9 11 11 11 12 12 14 14 15 15 15 14 10 4 3 14 5 4 4 9 14 14 13 9 7 9 11 12 13 15 16 16 16
8 9 9 10 11 12 12 13 13 13 13 13 11 8 8 6 7 6 8 15 8 11 11 9 8 10 13 15 17 18 19 18 17
7 7 8 8 10 11 11 12 12 12 12 12 11 10 8 6 9 14 21 16 11 12 6 10 10 12 15 16 17 17 17 18 17
Wind_Direction
1 359 359 0 358 354 351 347 344 337 325 310 301 295 288 282 277 272 266 262 262 267 269 266 267 274 258 254 251 250 249 253 250
4 4 4 2 2 1 360 356 351 348 342 335 326 316 307 300 290 281 273 267 264 262 268 268 267 268 271 265 255 254 252 250 252
13 13 12 10 8 5 3 2 360 356 352 348 343 336 329 323 319 310 293 277 270 264 257 260 262 266 271 274 264 263 262 259 253
10 7 8 9 8 5 1 360 357 354 352 348 345 342 338 333 326 325 323 300 258 255 259 263 268 270 266 267 268 269 259 263 264
6 7 7 7 7 4 360 358 355 351 347 343 341 339 336 329 322 317 312 299 273 270 275 281 281 276 269 268 266 265 267 265 266
11 11 11 13 10 7 5 2 1 359 354 348 343 339 334 330 325 318 312 302 290 285 286 291 287 283 278 275 271 266 263 264 262
19 19 18 14 11 8 5 3 1 358 354 352 348 344 338 331 328 324 323 318 301 297 300 301 296 290 288 282 282 280 271 265 263
20 16 12 7 2 360 358 353 349 347 347 345 343 341 336 332 326 323 318 310 310 315 312 320 321 310 304 303 299 297 285 278 276
12 7 2 357 354 352 349 346 344 342 338 335 334 334 332 330 323 313 308 308 315 336 24 10 1 0 344 323 314 303 309 299 286
6 2 357 354 350 347 346 344 342 342 340 334 333 331 328 325 312 292 291 305 318 326 339 351 332 351 6 358 334 326 321 319 303
358 355 352 348 345 345 344 341 340 340 341 338 334 330 324 316 286 252 274 306 322 331 340 344 342 335 328 316 306 306 310 312 321
358 357 354 352 350 350 347 344 342 341 342 338 335 335 329 295 220 220 279 319 325 333 339 340 337 336 328 334 328 318 315 315 315
360 359 358 356 354 351 350 347 347 350 346 346 346 352 10 132 176 188 344 342 330 331 335 332 328 325 324 325 323 321 322 328 333
2 2 1 359 357 357 358 355 353 359 359 359 5 24 63 123 145 129 319 320 318 328 333 328 323 320 314 315 316 315 310 315 335
4 4 2 2 3 4 4 4 2 7 9 6 11 57 96 134 158 278 306 312 309 314 319 320 315 313 308 309 314 314 316 317 316
6 4 3 1 3 5 9 8 9 17 19 21 27 119 118 131 230 274 285 299 309 313 314 316 313 307 306 312 314 315 321 322 321
2 2 4 6 9 10 10 14 15 19 25 28 35 18 333 242 271 267 274 295 313 318 319 317 309 301 308 318 315 312 317 321 322
356 359 1 5 8 11 13 15 19 21 24 29 36 13 343 337 338 311 318 320 320 321 317 307 298 305 315 320 318 319 321 322 323
348 355 359 5 7 9 11 14 15 20 23 25 25 21 358 344 326 324 333 348 349 330 313 322 316 313 318 323 324 320 319 320 321
336 344 351 355 360 3 5 6 9 11 14 16 15 10 0 350 328 320 336 350 357 341 331 307 297 307 317 326 329 327 324 324 323